Theta_e
305 305 305 304 305 305 305 305 305 304 303 301 299 303 300 301 296 308 311 310 306 299 291 293 291 288 292 298 297 299 297 296 298 296 297 294 297 294 290 289 289 292 291 291 290 291 287 289 287 289 290 290 293 296 295 295 294 294 291 292 293 297 288 284 287 292 293 295 297 298 298 297 294 294 296 294 292 293 292 291 293 289 291 289 289 287 293
305 305 304 304 305 305 305 305 305 304 303 301 301 300 299 300 299 303 309 311 306 296 287 288 291 293 297 297 296 300 298 298 296 296 297 295 294 292 289 291 292 289 293 292 289 292 284 291 289 288 292 289 296 296 295 296 293 292 291 288 294 287 289 288 284 284 286 289 292 293 295 295 292 292 294 295 295 296 295 295 297 289 291 291 289 285 291
305 305 304 304 304 305 305 305 305 304 304 304 301 297 299 299 303 302 304 308 304 293 295 292 291 292 292 293 292 295 297 300 299 298 297 299 297 292 288 290 292 289 292 290 292 293 290 286 292 290 290 291 296 296 296 296 294 295 296 297 298 290 289 287 281 278 276 277 279 282 285 289 292 294 294 294 294 294 293 288 291 287 292 293 290 289 298
305 305 304 304 305 305 305 305 304 304 304 303 302 299 298 298 290 300 299 302 302 299 300 297 292 290 289 289 294 296 294 298 301 301 299 301 299 295 291 290 290 286 287 287 289 290 294 290 289 291 290 292 294 295 296 295 295 298 299 298 297 292 293 292 288 285 284 286 289 293 293 292 288 291 293 293 295 296 295 294 290 287 292 290 294 295 299
304 304 304 304 304 305 305 304 304 304 303 304 301 301 300 300 294 293 290 300 299 297 299 297 297 290 294 288 294 292 294 297 298 302 295 300 298 297 292 288 284 285 284 286 286 290 291 293 292 290 291 292 294 296 296 295 297 301 298 300 296 292 288 291 291 290 292 293 292 294 293 291 291 291 291 293 293 294 294 290 289 295 292 288 295 299 299
305 305 304 304 304 305 305 304 304 304 303 303 304 298 301 292 296 298 301 292 290 291 292 297 295 296 296 292 295 293 293 295 291 298 300 301 302 295 296 294 290 288 285 285 283 290 290 291 288 293 292 293 295 293 295 294 298 298 295 299 294 292 287 292 292 291 293 293 294 294 293 293 293 292 292 292 293 294 293 294 294 296 290 289 297 300 301
305 305 304 304 304 304 304 305 304 304 303 303 303 296 298 298 297 298 299 291 294 294 295 296 295 295 296 294 296 291 293 293 296 296 296 298 298 298 288 290 289 287 288 286 285 288 288 287 295 292 293 292 292 290 292 294 296 296 295 296 298 294 289 293 293 291 292 293 294 295 293 293 293 293 293 294 294 294 294 294 295 295 296 297 298 302 302
305 305 304 304 304 304 304 304 304 304 302 305 303 300 293 292 292 290 296 295 293 295 297 297 296 294 296 291 296 295 293 290 296 297 296 292 295 300 294 293 296 290 288 286 284 286 289 292 288 295 295 296 296 292 292 291 295 296 294 295 299 293 289 294 294 291 290 293 295 295 294 293 292 293 294 294 294 294 295 295 296 298 297 298 299 299 300
305 305 304 304 304 303 304 304 305 303 303 302 299 299 300 297 299 297 291 288 293 295 296 295 295 293 295 293 296 296 296 295 297 296 300 297 295 298 297 299 297 298 289 285 287 290 293 295 296 298 298 293 297 292 293 295 292 294 293 295 297 296 290 295 294 287 288 292 293 294 294 294 292 292 293 293 293 292 295 293 298 296 295 297 298 296 296
305 305 304 304 303 304 304 304 305 303 303 301 299 296 301 300 301 299 294 288 292 291 296 296 295 290 295 295 296 295 296 297 296 292 299 300 301 300 300 298 298 294 288 286 289 295 296 298 300 301 302 303 301 300 300 297 295 293 293 297 294 295 293 289 290 287 287 292 293 293 294 292 288 289 293 294 295 295 297 296 298 299 300 295 291 294 300
305 304 304 304 304 303 304 305 305 304 303 299 296 296 298 295 293 294 294 287 290 293 292 293 293 295 296 298 295 297 295 295 296 293 292 299 300 303 303 300 297 295 295 300 302 302 304 304 305 305 303 303 301 302 302 300 298 297 295 296 296 296 295 291 294 286 287 292 294 293 289 282 284 296 299 297 295 295 294 295 297 299 299 297 300 300 304
304 304 304 303 303 303 304 304 304 304 303 302 302 299 300 300 297 295 291 286 286 292 292 290 292 295 295 296 295 294 294 295 296 300 295 298 300 302 302 300 300 292 301 308 306 308 308 308 307 305 304 302 301 301 301 298 297 299 299 296 295 296 295 291 294 288 286 291 290 286 281 284 296 300 300 299 299 298 298 298 299 299 300 301 300 301 302
305 304 304 303 303 303 303 304 305 304 304 304 302 298 302 302 297 294 292 289 286 289 288 291 295 296 296 295 294 295 297 299 301 299 298 299 298 301 301 300 298 300 306 306 306 306 300 298 299 299 299 300 299 300 299 298 297 298 298 299 297 292 291 290 289 291 290 288 287 279 282 294 299 301 304 304 300 300 299 297 299 302 301 301 300 301 303
304 304 304 303 303 303 302 304 304 305 305 305 301 301 302 302 296 293 292 287 286 291 292 290 294 293 294 294 294 295 297 297 298 298 296 299 299 299 301 302 302 306 307 308 304 302 295 296 290 292 293 296 295 294 297 299 298 298 297 298 298 298 295 293 288 294 285 286 285 286 294 293 297 297 300 300 296 297 295 290 295 301 302 302 301 302 302
304 304 304 303 303 302 302 303 304 304 305 304 303 302 302 302 300 296 296 292 286 289 292 287 291 292 293 294 295 292 293 294 293 292 297 300 300 301 302 302 306 307 308 304 299 301 295 294 289 287 289 287 283 286 295 293 297 299 299 298 298 300 293 297 290 287 290 286 284 285 285 283 289 302 306 308 306 309 309 301 295 302 303 304 303 302 302
304 303 303 303 302 302 302 302 303 304 304 304 304 302 302 304 303 299 296 292 289 284 290 294 294 294 292 293 295 292 290 290 291 293 294 297 298 302 302 303 306 308 307 304 302 297 294 289 287 287 285 287 292 290 288 293 292 298 299 299 299 299 299 297 291 288 289 287 284 283 281 285 294 300 305 307 308 307 307 298 291 301 303 304 303 303 304
304 303 303 303 302 302 302 303 303 304 304 304 301 301 300 306 302 299 295 293 291 286 295 295 297 296 293 292 294 292 293 289 292 289 288 291 295 299 300 302 306 306 303 302 299 296 292 289 292 291 292 293 288 287 292 291 290 291 296 297 296 296 294 292 290 288 289 287 285 283 287 287 296 302 304 306 308 308 302 287 288 303 305 305 304 303 304
303 303 303 302 301 301 302 302 303 303 303 305 303 301 301 305 305 302 297 293 289 289 294 298 295 291 290 292 290 294 296 295 294 295 292 294 297 298 296 300 299 303 305 298 298 292 289 289 287 288 287 293 295 293 285 290 288 288 290 291 291 291 291 291 288 289 288 287 287 289 289 295 302 303 305 307 308 306 290 285 295 310 311 312 312 306 305
303 303 302 302 301 301 302 302 303 303 303 304 304 302 301 305 305 303 298 293 291 287 295 298 298 296 298 299 297 296 296 295 294 290 290 291 296 299 298 300 303 294 300 295 297 292 290 289 296 294 290 291 295 286 294 289 288 293 293 289 290 291 291 290 291 288 288 289 286 287 290 297 303 305 306 309 302 289 288 303 312 313 311 313 312 311 314
303 303 302 302 301 301 302 302 302 303 303 304 303 299 300 303 304 304 297 292 293 290 293 295 296 295 298 295 293 292 294 294 294 292 291 288 297 298 295 292 298 300 295 298 291 295 291 288 291 295 291 292 293 298 293 294 297 293 292 295 291 291 288 288 289 290 291 289 287 286 283 295 305 307 304 307 295 299 308 312 313 312 312 312 312 314 315
303 302 302 301 301 301 301 302 303 302 303 304 303 300 298 304 305 305 304 299 292 288 290 299 299 297 298 297 298 297 295 292 293 291 294 294 297 295 287 287 292 295 291 293 288 290 291 289 291 292 295 293 295 295 288 289 292 299 296 295 293 298 289 290 291 295 287 287 285 286 294 301 309 306 295 304 307 314 316 314 310 312 314 312 311 315 319
302 302 302 301 301 301 301 302 301 301 303 303 303 301 297 302 303 304 304 303 295 290 293 298 300 299 300 301 301 301 299 298 299 299 295 292 298 296 295 296 297 299 299 300 295 292 295 295 296 291 290 293 298 291 294 290 287 295 301 299 289 300 295 296 290 300 293 289 292 300 303 307 310 311 309 312 313 314 314 313 312 313 314 318 316 315 321
302 301 301 300 301 301 302 301 301 301 302 303 303 301 297 299 301 305 304 298 299 300 300 299 300 301 302 302 304 304 304 305 304 302 301 295 292 297 296 296 298 304 303 304 297 295 294 294 290 295 293 296 293 292 295 295 289 294 291 300 298 302 303 305 300 297 302 303 303 306 307 309 309 311 313 312 313 313 313 313 313 315 317 319 318 318 320
301 300 300 300 301 301 301 301 301 301 301 302 302 300 299 302 303 302 300 299 295 291 294 299 296 293 296 297 303 306 305 304 304 305 306 303 292 293 298 302 302 302 301 303 306 297 297 295 295 296 290 295 299 290 288 288 289 296 296 295 299 302 303 302 296 300 296 291 303 303 306 309 309 310 312 313 314 312 312 313 311 312 314 317 320 323 323
300 300 300 300 300 301 301 301 301 301 301 302 302 303 303 302 304 303 298 290 291 289 285 289 292 299 302 304 305 303 303 305 306 306 304 304 301 296 294 300 303 299 298 302 305 301 298 293 295 295 289 297 299 291 299 292 292 300 292 294 298 299 306 300 299 298 295 294 303 307 309 310 312 311 310 310 312 313 315 313 313 312 315 317 321 323 322
300 300 300 300 300 300 300 301 301 301 301 302 302 300 299 299 303 304 302 299 298 295 287 286 292 302 303 301 299 301 304 304 303 303 304 304 304 303 302 303 302 306 304 304 303 298 296 295 295 294 293 293 304 295 294 299 297 301 298 296 301 303 305 295 301 297 300 302 305 306 308 308 309 311 311 314 312 312 312 311 312 315 313 315 314 318 320
300 300 300 300 300 300 301 301 302 302 302 302 302 301 300 301 303 301 298 297 292 288 290 288 293 297 299 297 301 303 305 305 306 304 302 303 304 305 304 302 301 302 302 301 303 299 298 296 294 293 298 297 300 299 301 299 300 296 294 301 304 302 299 302 300 294 294 295 299 306 295 295 303 309 310 312 313 313 312 313 314 314 314 314 314 313 316
300 300 300 300 300 300 301 301 302 303 303 303 303 302 302 301 302 303 303 302 295 288 288 288 289 293 299 297 303 304 303 303 303 303 304 304 304 304 303 302 302 301 301 299 295 296 295 294 295 295 295 300 299 296 302 305 301 299 298 300 303 299 300 301 295 294 294 302 306 307 306 304 307 309 312 313 315 316 313 312 312 314 315 315 314 313 313
300 300 300 300 300 300 301 301 301 302 303 302 302 301 302 304 304 305 304 305 303 296 292 292 294 293 289 296 302 301 305 306 304 302 302 302 303 303 303 303 302 302 302 300 298 297 296 296 297 297 297 303 298 295 298 292 292 291 297 303 304 305 306 305 303 304 306 307 308 309 308 306 307 311 313 313 316 315 314 314 315 313 313 314 315 315 313
300 300 300 300 300 300 300 300 301 301 302 302 300 298 295 298 305 306 306 306 304 300 290 287 284 288 299 298 298 302 303 305 304 304 303 302 302 302 302 302 302 304 303 299 298 294 297 297 296 302 303 308 299 297 294 295 293 297 303 304 305 307 307 308 308 306 304 309 310 311 311 311 313 313 313 314 316 314 312 313 313 313 313 314 314 314 314
301 301 301 301 301 301 301 300 300 301 301 300 298 291 290 289 298 305 303 305 304 298 292 290 287 292 291 299 301 300 303 303 303 303 303 303 303 303 304 304 304 303 298 299 299 298 298 296 297 299 303 304 300 296 295 295 292 296 302 304 305 305 304 305 308 310 311 311 311 312 313 312 314 312 312 312 315 315 315 314 314 313 313 313 314 314 315
301 301 301 301 301 301 301 301 301 301 300 298 295 294 296 297 300 302 303 304 303 298 291 286 286 288 289 293 300 304 303 304 303 303 302 304 301 304 304 303 303 305 300 298 299 298 297 298 296 300 299 307 300 298 297 295 291 294 303 303 306 308 310 307 308 309 311 312 311 310 309 311 313 310 309 314 314 315 314 313 313 314 314 314 315 317 317
300 301 301 301 301 301 301 301 301 301 300 301 303 303 302 302 301 302 304 303 300 296 296 288 284 287 286 293 299 302 304 303 301 302 299 304 301 305 302 306 305 303 307 300 297 295 300 297 296 297 301 307 296 295 296 293 296 301 302 303 305 307 307 309 310 312 310 311 311 306 306 309 311 313 313 313 314 313 313 312 313 314 314 313 312 313 315
300 300 300 300 301 301 301 301 301 301 301 299 296 298 301 303 303 302 303 302 297 297 294 288 285 285 287 297 293 301 303 297 297 300 295 304 305 303 299 302 304 297 301 298 300 299 300 299 296 295 300 295 299 294 291 296 300 301 302 303 304 305 306 309 308 308 309 309 312 312 312 313 314 314 313 312 312 313 313 314 314 313 313 312 311 313 314
300 300 300 300 300 301 301 301 301 300 297 299 300 305 303 301 304 303 302 299 291 289 288 289 289 285 286 289 288 296 303 299 296 299 294 299 305 300 301 295 296 295 296 306 298 298 296 296 301 294 292 299 294 290 291 297 299 301 302 302 304 305 305 304 304 309 309 310 311 311 313 313 311 310 310 310 310 311 312 312 313 315 310 310 310 311 313
299 300 300 300 301 301 302 303 301 299 298 298 300 301 302 302 302 305 304 303 297 290 287 288 289 286 288 285 286 293 302 297 300 300 299 299 298 302 300 297 292 296 303 298 294 300 295 302 296 291 296 292 290 293 297 300 299 300 302 302 303 304 304 303 305 309 309 311 311 312 313 312 311 310 310 311 312 311 310 310 310 310 310 311 310 313 313
299 300 300 300 301 302 299 299 302 302 300 302 301 302 301 303 305 304 302 299 300 300 291 288 286 288 290 289 292 293 299 290 298 295 297 293 293 296 296 293 291 295 295 294 294 293 297 304 296 292 292 290 292 298 299 299 300 301 301 302 304 305 305 306 308 307 308 309 309 308 309 308 308 308 307 308 309 311 309 307 307 306 306 306 307 307 310
300 300 299 299 300 295 294 297 302 303 299 300 301 300 298 296 291 292 293 291 295 296 292 292 286 291 295 292 287 299 298 293 299 292 293 296 293 292 294 293 293 293 288 291 295 303 296 294 293 292 292 298 300 300 301 303 303 304 303 305 306 306 306 307 310 308 305 305 304 305 306 308 306 308 308 307 308 307 309 309 308 308 308 308 308 310 310
299 299 299 299 298 293 294 300 306 302 304 303 302 293 291 294 291 289 289 291 291 289 292 291 288 293 292 292 294 301 297 293 291 294 290 297 292 289 293 289 293 293 290 290 293 301 290 292 292 292 291 296 297 301 302 304 303 304 306 307 309 309 309 309 311 309 305 303 307 307 307 305 305 305 308 306 306 308 307 307 308 308 309 308 307 308 309
298 297 296 295 294 297 302 305 304 303 302 294 295 292 287 292 288 286 292 288 288 291 293 288 295 295 296 293 292 292 302 296 290 289 291 293 301 290 293 292 293 290 286 287 290 299 290 287 290 290 290 295 298 302 302 303 302 305 306 308 310 311 311 312 312 311 310 310 309 309 309 309 309 309 308 307 307 307 307 307 309 310 309 309 309 309 309
299 298 297 293 297 299 301 302 302 301 295 291 290 290 288 286 290 291 290 287 287 289 296 295 296 294 297 297 296 291 300 303 299 299 295 290 298 297 291 287 294 288 286 286 292 294 291 289 289 289 291 298 300 303 304 303 304 304 306 308 310 311 312 312 312 311 310 309 309 308 309 309 309 307 309 310 309 308 308 308 308 309 310 310 308 309 311
298 298 299 301 300 301 300 299 296 291 291 292 287 284 287 288 290 289 290 285 286 291 293 295 290 292 292 295 295 296 295 302 299 295 293 288 293 291 289 291 291 287 284 291 296 292 291 286 288 288 295 299 301 303 302 303 303 304 306 306 308 311 311 312 310 310 310 310 310 310 310 310 310 309 309 309 309 309 312 310 311 309 309 310 310 310 310
301 302 302 298 297 295 295 289 292 291 284 284 284 282 286 284 286 285 287 292 296 293 293 299 297 298 299 300 296 299 295 301 294 292 291 289 295 293 289 289 287 284 288 295 291 288 287 286 286 292 297 300 301 302 303 303 304 305 305 308 307 308 312 311 309 308 309 310 310 310 310 310 309 310 311 311 309 308 309 309 310 310 309 310 309 310 310
301 300 295 294 290 290 291 281 292 287 285 286 283 279 283 282 285 288 287 288 292 291 295 292 293 292 288 297 294 293 295 295 295 294 292 294 291 288 288 285 286 292 297 290 288 285 287 289 291 294 297 300 300 302 302 304 305 305 305 306 309 309 309 308 310 310 310 311 311 311 310 309 309 310 309 309 309 308 308 308 309 310 310 310 309 309 309
293 291 291 289 286 289 287 280 291 286 281 284 286 285 285 283 286 288 287 290 293 291 295 295 293 293 290 295 295 294 293 290 296 290 287 290 288 289 286 286 290 291 288 285 287 288 288 287 295 298 298 298 300 301 303 304 304 305 305 306 307 308 308 308 308 308 306 307 308 308 307 309 308 307 308 308 308 308 308 308 309 309 309 309 309 309 309
290 288 287 284 280 286 285 282 285 283 288 289 287 290 289 290 290 290 294 296 293 294 292 293 293 293 290 294 290 289 292 292 289 289 291 290 286 284 290 294 292 286 285 286 284 285 285 289 293 294 298 299 299 300 302 303 305 305 305 304 305 306 307 307 307 306 307 308 308 307 307 307 307 307 307 308 308 308 308 309 310 309 309 308 308 308 309
291 291 289 287 283 286 288 283 284 287 290 292 293 293 292 292 293 294 295 295 293 294 294 295 294 293 290 290 291 291 292 292 288 290 291 286 285 288 292 288 283 285 283 282 284 285 287 292 295 297 298 299 298 298 299 300 302 303 303 305 306 306 307 307 305 306 306 307 307 306 306 306 307 307 307 307 308 309 308 310 310 310 308 308 309 309 308
286 290 289 282 281 285 283 286 291 292 293 293 293 294 294 295 292 292 295 295 295 294 293 293 290 292 291 295 294 289 290 291 287 288 290 288 290 287 285 285 284 287 287 285 285 289 291 293 295 296 298 299 298 298 298 299 299 300 303 304 305 306 306 307 307 307 306 307 306 306 306 306 306 306 306 307 307 308 309 310 309 310 310 309 308 307 307
291 288 285 285 287 287 287 291 291 289 291 293 294 293 293 291 291 292 294 295 294 293 294 292 290 290 287 290 289 288 286 289 284 285 289 288 284 282 282 281 283 282 286 289 289 291 294 295 296 297 297 297 297 297 297 297 298 298 300 301 304 304 305 305 307 307 307 305 307 306 306 305 306 305 304 304 305 305 306 308 309 310 310 308 307 306 305
288 287 289 286 286 287 290 292 290 288 291 292 292 291 292 291 291 293 295 293 294 294 294 293 293 288 288 288 285 287 286 289 287 288 286 284 285 286 284 280 283 284 286 290 291 293 295 295 295 295 295 295 295 296 295 296 295 296 297 298 301 304 304 304 306 307 307 306 305 304 307 305 304 304 304 303 303 305 305 306 307 308 308 308 307 305 304
291 288 288 292 287 286 289 285 285 286 287 289 290 290 291 290 291 291 295 294 293 292 289 287 288 287 286 285 284 281 284 289 286 285 285 284 287 285 283 282 285 288 290 293 294 295 294 294 293 292 293 293 294 294 295 295 296 296 296 297 298 300 301 301 301 303 306 305 305 297 305 308 305 306 306 306 305 303 303 303 305 307 306 305 305 306 305
287 285 285 290 292 292 292 292 291 290 290 291 291 292 293 291 293 293 296 293 292 288 286 289 287 285 284 282 284 287 290 287 285 285 284 286 288 285 284 285 287 290 291 291 292 293 293 293 292 291 292 291 292 294 294 295 295 295 295 295 295 296 297 298 298 299 300 302 304 305 305 308 307 306 306 305 305 304 303 302 303 305 306 306 307 307 306
Wind_Speed
18 19 18 19 19 21 22 23 22 21 21 13 11 10 6 7 3 7 8 8 7 4 6 7 7 6 8 12 15 14 13 12 13 15 11 11 8 7 7 7 5 11 11 12 12 11 9 12 9 6 8 13 12 6 13 17 15 12 9 14 12 12 6 6 9 11 14 18 14 15 16 15 16 15 15 13 14 16 12 10 8 8 10 11 9 9 6
18 19 19 20 20 20 23 22 21 20 18 13 11 9 6 7 5 4 5 6 4 6 6 7 6 8 10 12 16 13 14 13 14 11 14 7 4 6 5 5 12 9 9 12 13 11 7 0 4 4 7 7 11 14 17 16 14 13 9 10 11 8 8 7 4 4 6 13 13 12 13 14 11 11 14 16 15 18 16 14 10 8 13 16 10 9 6
18 18 20 21 21 20 20 21 21 19 18 13 9 7 8 8 6 3 6 6 6 6 5 6 9 11 13 14 18 17 11 7 11 15 15 12 2 5 5 8 5 5 3 9 14 14 13 7 7 7 8 11 12 17 17 17 14 14 13 12 5 7 4 7 4 5 7 12 13 13 13 15 11 14 17 19 20 20 15 13 9 9 10 20 9 6 6
17 18 19 20 20 20 19 20 21 20 19 15 9 6 7 6 4 4 5 6 7 10 11 10 8 8 9 10 12 13 14 13 14 14 13 15 5 8 3 1 3 2 3 6 10 13 12 10 3 3 4 5 8 10 17 16 13 15 8 8 2 2 8 3 7 9 9 11 11 12 13 12 15 18 20 21 20 18 17 12 10 9 8 9 9 10 5
17 18 19 19 19 19 20 20 22 22 22 15 9 8 6 6 5 6 4 4 9 10 7 9 8 6 6 6 8 15 16 16 14 13 10 12 6 4 6 3 4 1 0 3 6 12 13 10 12 11 10 4 7 12 14 14 16 14 10 5 5 7 8 10 14 17 13 8 12 13 17 16 18 19 19 20 20 21 18 12 7 8 8 9 9 9 6
17 18 18 18 19 20 19 20 22 24 24 24 9 8 5 5 6 9 5 4 7 8 3 4 10 12 10 10 12 15 19 18 14 14 11 15 4 4 3 8 7 3 5 2 3 9 8 1 3 6 9 8 13 11 13 13 13 14 10 14 11 7 8 10 10 10 12 9 10 10 16 17 17 19 20 22 23 22 19 9 11 8 7 8 8 8 2
17 17 17 18 20 19 19 20 21 25 27 23 6 6 6 6 7 3 10 6 8 10 15 16 14 14 13 7 12 11 14 16 16 13 16 13 8 0 5 4 8 9 6 3 4 7 8 2 2 2 2 5 7 8 13 13 17 16 14 14 8 3 6 10 10 12 11 10 10 13 17 16 17 20 21 21 20 17 15 14 17 17 12 14 12 5 4
16 16 17 17 19 20 19 21 20 22 27 21 8 6 6 7 7 5 11 9 13 13 12 12 13 12 6 3 9 12 9 10 18 16 14 12 13 6 4 9 9 10 9 8 4 4 4 10 6 2 6 7 8 8 8 10 14 14 13 9 10 7 3 6 1 4 10 13 13 13 16 17 18 20 20 20 19 19 19 17 15 15 16 14 12 7 4
16 15 16 16 18 19 19 20 19 20 22 10 11 6 8 7 5 6 9 11 8 9 10 10 11 11 8 7 12 12 16 17 19 18 16 13 16 16 19 15 9 5 10 9 11 11 8 11 13 11 10 8 7 2 9 11 12 15 12 9 7 9 3 4 5 4 5 9 12 13 12 15 17 18 19 19 19 18 17 13 7 10 12 13 10 4 4
16 15 15 16 16 17 18 18 18 17 20 7 8 7 8 8 6 6 6 8 8 10 12 13 10 7 9 9 14 12 18 18 19 14 10 14 16 16 17 11 6 6 7 11 15 17 17 16 13 11 11 10 10 10 11 11 10 10 11 8 7 7 6 2 4 5 2 7 19 12 10 12 14 15 16 19 18 16 14 15 14 12 11 10 4 6 7
15 15 15 15 16 17 17 17 16 14 12 8 8 7 8 7 8 7 6 9 10 9 11 10 10 9 15 15 18 18 18 20 17 14 10 16 16 18 8 13 12 8 7 2 13 15 13 13 12 11 11 13 16 14 15 17 14 12 10 7 4 1 4 5 2 3 4 6 2 8 5 9 11 9 15 18 18 19 19 15 15 16 14 8 9 8 6
15 14 15 15 16 17 16 15 16 14 11 9 8 7 6 7 8 7 7 9 11 11 10 9 11 13 16 17 17 18 19 19 19 15 17 14 16 14 16 15 14 8 15 2 9 9 9 8 12 9 10 11 14 15 17 15 15 12 11 9 5 6 3 4 1 2 2 8 7 2 7 9 5 5 11 17 19 20 18 16 16 18 20 16 14 11 9
15 14 14 15 16 17 15 15 15 15 12 9 8 8 7 6 7 7 8 9 10 10 11 13 17 18 15 18 19 17 19 19 17 17 16 15 15 13 13 14 15 15 15 12 6 4 8 5 3 7 9 10 12 15 17 15 12 14 11 11 6 2 2 2 3 3 2 4 1 2 4 8 14 11 11 13 18 17 15 15 14 12 12 11 13 14 9
15 14 14 14 16 16 15 14 15 14 14 11 8 7 8 8 7 7 6 7 10 10 12 14 13 13 17 18 17 19 18 16 16 15 15 14 15 14 14 13 15 14 14 10 5 9 6 2 2 2 5 4 6 9 16 15 10 10 12 10 8 11 6 4 4 4 3 1 1 6 11 13 14 11 7 9 11 12 11 7 13 15 13 14 13 14 14
13 14 14 15 16 16 15 14 14 14 14 12 9 8 7 6 4 6 7 8 11 14 13 8 12 16 18 17 16 15 13 14 15 13 16 14 12 13 14 17 15 15 13 9 3 2 2 3 2 2 4 6 8 9 10 9 9 10 10 9 8 8 7 4 5 1 2 2 4 5 5 7 1 6 10 13 7 7 4 6 6 11 14 14 16 17 16
13 13 14 15 16 16 16 14 13 13 12 13 9 8 7 5 5 5 7 7 9 10 4 12 18 16 15 13 15 15 12 11 11 13 13 13 14 16 15 17 14 13 10 8 2 2 0 1 3 4 3 6 6 5 6 6 7 9 8 7 6 7 6 7 4 4 3 2 4 2 4 2 4 12 11 13 13 8 3 2 11 7 12 12 13 10 8
13 13 14 15 16 16 15 14 13 13 12 11 9 8 7 5 5 6 7 7 7 13 16 21 17 15 13 12 11 10 10 10 12 10 11 12 16 15 16 16 12 12 17 7 5 3 3 4 6 4 9 6 6 4 6 6 7 8 10 9 7 5 4 0 3 4 3 4 4 4 2 4 4 10 13 14 14 7 6 9 7 3 5 10 13 12 12
13 13 13 15 17 16 15 14 14 13 11 9 9 9 10 8 7 6 6 8 9 13 10 11 16 13 10 11 13 13 11 10 11 11 10 13 12 13 16 13 12 11 16 8 5 2 3 3 6 3 6 5 3 6 5 5 7 6 10 9 7 5 3 2 4 3 4 4 5 3 3 4 4 5 12 14 13 6 6 9 1 8 9 9 6 10 13
13 13 13 13 15 16 15 15 13 13 12 12 10 10 9 5 3 4 6 7 7 13 15 18 16 15 14 13 12 12 10 12 12 10 9 9 8 16 22 6 7 8 13 9 9 7 6 3 3 4 6 9 12 4 8 4 4 6 7 8 7 4 1 2 2 4 4 1 6 3 5 7 7 6 12 15 9 6 6 2 5 8 7 7 6 9 8
12 12 13 14 15 16 15 15 15 12 13 13 9 9 10 11 9 6 7 9 7 14 16 17 16 17 12 14 13 11 11 11 9 10 9 10 12 17 13 2 7 10 8 8 7 7 6 8 8 6 4 8 6 8 7 8 5 8 7 7 5 5 3 3 3 1 3 3 4 2 3 1 3 9 14 4 1 2 4 5 4 4 7 5 6 6 9
13 14 14 15 15 15 15 15 14 13 13 13 11 9 10 8 7 5 7 9 8 11 12 5 11 19 18 18 17 17 14 14 12 11 10 11 11 9 7 6 10 8 6 5 8 8 5 6 9 3 2 5 6 6 4 6 13 9 10 7 9 4 4 3 3 4 3 2 2 2 1 2 2 3 2 4 7 8 5 6 3 4 3 4 1 5 7
14 14 15 16 16 15 15 15 15 13 13 13 13 9 10 9 8 5 5 6 9 11 13 18 19 21 22 20 19 18 18 19 17 12 11 11 8 8 9 13 10 5 5 3 6 4 6 5 5 4 6 5 2 2 7 6 5 6 14 8 7 7 7 4 4 3 2 2 4 6 5 2 2 2 5 3 3 10 11 6 7 5 4 3 3 0 2
15 17 16 16 14 14 14 14 14 13 14 13 10 8 10 10 9 9 9 10 9 11 13 16 17 18 20 22 24 22 20 15 14 13 11 10 10 8 9 10 8 4 4 3 4 5 6 6 4 7 5 3 4 6 6 1 2 5 5 9 9 6 11 2 3 3 3 7 11 4 6 5 2 2 3 5 8 10 12 14 8 4 2 4 2 1 2
16 16 15 14 14 14 14 14 14 13 14 14 11 9 10 10 10 9 8 8 9 13 14 9 8 6 9 12 13 10 10 14 15 12 9 8 8 9 9 4 7 7 5 4 2 4 6 3 6 7 7 6 5 1 4 3 2 5 7 7 8 7 5 2 4 4 5 3 7 6 3 4 2 1 3 7 8 9 6 7 12 18 11 4 2 2 4
14 15 13 13 14 14 14 13 14 14 14 15 13 10 10 10 9 8 8 6 4 7 9 13 13 15 16 14 14 14 12 11 9 14 13 12 12 10 11 12 12 8 11 9 5 6 3 5 7 6 6 5 5 5 3 4 3 2 4 5 6 6 16 12 10 9 7 3 4 5 3 3 2 2 2 3 5 1 5 1 3 7 16 7 6 3 6
13 13 13 14 13 14 14 13 13 13 14 15 13 10 9 10 9 9 9 9 8 7 10 11 11 11 12 15 16 15 16 14 14 15 13 15 15 14 14 12 11 8 9 9 8 6 5 5 4 6 7 4 2 4 4 3 10 8 6 7 6 5 6 4 9 8 8 6 10 14 7 12 11 11 11 8 10 9 11 6 4 7 10 11 9 9 9
12 12 13 13 14 13 14 14 14 14 15 16 12 10 11 10 10 9 8 7 8 7 5 9 12 15 14 21 21 17 15 14 11 10 12 13 15 14 13 12 12 9 9 9 7 6 4 5 4 8 7 6 5 6 4 4 5 3 2 4 7 7 4 8 10 6 4 3 7 11 4 4 8 10 8 6 8 9 10 12 3 7 11 13 14 11 8
12 13 14 14 14 14 14 15 14 13 14 14 12 12 11 11 11 11 10 9 6 7 11 14 15 18 20 21 17 13 14 12 10 11 12 12 13 13 13 14 12 10 8 7 6 5 5 6 8 4 5 7 5 5 3 4 1 2 4 4 4 5 8 7 2 3 4 8 4 3 7 8 6 5 9 2 5 6 6 3 8 9 6 7 12 13 10
14 14 15 15 15 15 15 15 14 11 12 13 10 11 12 13 13 10 8 6 7 8 10 13 14 14 9 12 19 17 13 10 10 9 10 11 12 13 13 13 12 10 9 7 6 6 6 7 5 7 6 7 6 4 5 4 3 3 3 5 3 4 6 8 6 6 4 9 3 3 3 2 3 4 3 3 2 3 6 7 7 6 9 10 7 8 12
14 15 15 15 15 15 15 14 13 13 13 10 8 8 8 2 6 2 1 1 3 6 7 8 10 5 10 11 12 13 12 11 10 11 13 12 12 11 11 11 11 10 9 6 5 7 6 6 4 8 10 7 7 4 6 6 6 3 3 4 4 6 3 7 6 6 6 4 2 3 1 3 2 4 1 4 5 4 3 7 7 7 8 7 8 7 7
15 16 16 15 15 15 15 15 13 11 11 8 6 4 5 0 5 3 5 3 3 4 5 5 10 11 13 11 12 16 15 12 10 10 11 11 11 12 11 10 10 9 6 6 5 7 5 7 5 7 9 6 2 4 7 8 7 8 1 3 4 2 5 5 5 11 4 2 3 4 3 2 5 6 2 2 4 6 5 6 6 5 6 2 6 6 7
15 16 16 16 16 16 15 14 13 11 8 8 8 5 4 4 6 4 4 5 5 5 4 7 8 5 5 8 7 11 14 14 11 9 8 7 9 8 9 8 8 7 6 6 5 5 6 6 7 9 10 2 1 6 6 7 6 4 1 7 2 2 2 0 1 6 5 4 6 2 2 2 1 1 1 2 3 4 3 3 5 7 8 7 4 3 4
15 16 18 17 17 17 17 15 14 11 9 11 17 22 22 18 12 9 8 4 4 3 2 3 6 5 5 8 13 15 7 7 9 8 8 7 8 3 6 5 7 7 5 5 5 5 6 5 4 8 7 4 3 3 6 6 7 8 8 6 6 5 5 4 2 5 5 7 3 3 0 2 2 3 2 1 1 2 1 3 3 5 7 6 4 4 4
17 17 19 20 20 19 18 18 16 16 14 10 9 9 9 13 11 8 6 6 5 4 2 3 4 6 9 10 11 3 7 9 8 7 7 3 2 2 5 6 6 4 4 7 4 5 6 8 7 7 7 5 5 4 5 7 9 11 8 6 8 10 4 5 7 8 3 11 7 4 2 2 1 1 3 1 0 1 1 2 2 4 3 5 1 6 5
18 18 19 21 20 19 19 18 11 7 6 6 8 1 6 5 4 8 6 4 3 2 2 3 3 7 9 7 6 6 9 9 9 7 6 6 6 9 5 5 1 3 3 5 5 6 6 6 8 5 6 7 4 4 4 9 10 6 5 4 1 5 8 1 4 9 8 10 8 4 1 1 2 2 3 1 1 1 3 4 4 2 3 4 3 4 4
18 19 20 20 22 18 11 9 9 6 6 6 1 5 6 6 3 5 6 5 4 4 3 3 3 8 7 8 8 5 9 10 8 8 6 5 8 7 8 4 6 6 6 4 5 6 6 6 4 6 4 5 4 5 6 6 7 7 8 7 7 6 6 8 5 9 9 6 6 6 6 4 4 5 5 4 4 3 3 4 2 3 2 1 4 4 3
19 20 22 21 12 6 7 6 6 6 1 4 4 5 2 5 3 4 5 4 4 3 5 4 7 10 8 8 4 4 8 8 7 7 7 5 6 4 6 4 6 3 4 4 5 6 8 7 6 6 5 5 6 8 10 10 9 5 5 6 7 7 7 6 6 3 9 12 3 4 4 5 4 4 4 2 4 5 4 1 6 7 7 6 5 6 5
19 20 11 9 6 6 4 1 4 5 4 3 3 2 4 4 3 3 2 3 3 5 4 5 9 10 8 8 8 8 8 8 8 6 5 3 4 4 3 4 5 3 7 5 6 4 4 3 4 5 5 9 10 13 7 5 7 6 6 6 7 8 9 5 1 4 5 7 3 6 5 5 4 4 4 4 6 7 4 2 4 3 4 5 5 5 5
15 9 6 6 6 4 3 4 4 9 6 3 4 2 2 3 2 2 3 3 2 5 5 6 8 9 8 9 9 6 6 7 7 7 7 5 4 5 3 5 3 3 5 4 4 4 5 3 4 5 8 10 9 5 4 4 5 4 5 6 5 6 6 3 4 5 6 10 8 5 4 3 5 2 7 7 8 6 5 4 2 1 6 8 7 6 5
4 4 3 4 3 4 4 6 10 4 2 2 2 2 3 3 4 4 3 3 4 5 4 7 9 9 8 8 7 8 3 6 6 7 7 7 2 6 4 4 3 3 5 5 3 2 3 5 3 4 4 6 6 6 6 6 6 7 5 5 7 6 8 3 4 2 5 3 2 5 5 3 5 7 4 4 5 8 4 3 4 5 6 6 4 6 6
4 5 5 3 7 6 6 6 5 4 3 3 2 2 2 3 4 2 2 5 5 1 6 6 4 5 6 8 6 7 5 4 5 6 4 7 4 5 4 5 2 4 4 6 3 3 3 4 5 3 5 9 12 13 14 10 8 7 7 7 6 7 6 2 2 2 1 2 4 3 2 3 2 2 1 1 3 4 6 7 5 5 4 4 5 5 4
3 4 5 7 8 8 7 5 3 2 3 3 2 4 3 3 2 3 4 4 3 2 3 3 5 5 7 7 8 7 6 4 4 3 3 6 2 4 4 4 3 4 5 3 6 4 4 4 6 1 7 10 10 11 11 11 12 11 10 9 8 6 4 3 1 1 2 2 3 2 2 3 2 1 2 3 2 3 2 2 2 3 3 3 1 5 5
15 11 7 6 4 3 3 3 3 1 2 2 3 3 2 3 3 4 4 3 2 3 1 1 4 3 7 3 7 4 6 5 4 3 3 5 4 3 4 4 3 5 4 5 4 4 5 6 2 5 6 7 10 11 11 11 11 12 11 12 10 6 5 2 3 4 2 2 2 2 2 2 2 3 3 2 1 2 2 3 4 3 1 2 4 4 5
9 8 5 3 3 3 2 4 2 1 2 2 3 4 3 5 5 4 5 1 4 4 2 5 7 8 8 6 7 5 4 6 2 2 3 3 3 3 2 3 4 3 4 3 4 6 5 3 5 4 9 9 10 12 13 12 12 12 12 9 11 13 14 13 7 4 4 4 3 1 3 4 3 2 1 1 2 3 2 2 4 1 2 1 1 3 4
4 2 3 2 1 1 1 2 2 2 4 4 4 6 4 6 4 5 3 2 4 6 8 7 7 7 9 7 5 5 3 5 0 2 3 3 4 3 3 3 3 3 4 5 4 4 3 3 5 4 8 10 11 13 12 12 12 12 13 13 12 11 10 12 12 10 7 3 3 1 2 0 1 1 1 2 2 1 1 1 2 2 2 2 3 3 3
4 3 2 3 3 2 3 4 2 4 4 3 5 6 7 7 6 6 5 6 6 7 7 8 8 8 9 6 4 5 3 4 5 4 3 3 4 5 3 3 2 5 4 4 6 5 3 3 7 10 11 12 13 14 14 13 12 12 12 12 11 12 11 10 9 11 13 9 2 2 0 0 1 1 1 1 2 1 1 2 2 2 2 3 5 1 2
4 2 2 2 4 3 2 4 4 4 4 5 5 6 6 7 6 7 6 6 7 6 7 7 8 8 9 6 5 4 4 3 4 3 3 4 3 3 2 3 4 3 5 6 2 4 5 7 5 3 10 12 12 12 13 13 13 15 14 11 11 10 10 11 10 8 9 9 6 4 1 3 4 3 2 2 3 2 3 2 2 1 2 2 5 3 4
3 2 2 3 3 2 6 5 7 8 8 7 6 5 6 5 6 6 5 5 5 6 7 7 8 7 7 5 6 7 6 4 5 4 3 4 2 3 3 2 4 3 1 1 3 3 6 7 9 10 12 13 14 14 13 13 15 16 15 14 13 12 11 12 11 10 15 17 9 3 2 0 1 2 3 2 2 3 3 3 2 2 2 5 4 3 2
2 2 3 3 2 3 4 7 7 8 7 7 5 5 5 6 6 6 5 5 5 6 7 7 5 5 7 4 5 5 6 3 5 3 2 3 2 3 3 4 5 5 1 1 3 0 2 5 8 10 11 12 13 13 13 13 13 14 14 15 14 12 13 12 10 11 12 12 14 10 5 2 2 2 2 1 4 5 4 4 3 3 3 3 2 3 6
3 3 3 4 5 6 8 9 8 6 6 6 5 5 4 5 5 4 6 5 6 7 7 7 6 5 5 3 4 4 6 4 4 3 4 6 4 1 1 4 2 3 1 4 5 6 7 7 9 9 11 12 13 13 13 14 14 14 14 15 15 12 11 14 12 9 10 8 9 17 15 3 0 2 1 7 3 1 1 3 5 6 4 2 2 7 6
2 3 4 6 7 7 7 6 5 5 5 7 6 6 6 6 6 5 7 5 6 6 5 6 4 4 3 3 3 5 2 2 3 4 5 4 2 3 3 4 5 6 7 6 6 7 8 9 9 9 10 11 11 12 12 12 13 13 14 14 14 14 13 14 14 12 10 9 11 11 15 12 3 2 2 1 4 7 3 3 1 2 3 3 3 6 6
3 4 4 5 8 9 8 7 7 7 7 7 7 6 5 7 5 6 5 5 6 5 5 4 4 4 3 5 3 4 4 3 4 4 5 1 2 3 3 5 5 5 7 7 7 7 7 8 8 9 9 10 11 12 11 12 12 13 14 14 14 14 14 13 13 13 12 11 10 9 9 11 4 3 4 6 8 6 5 4 5 5 3 2 4 5 4
Wind_Direction
340 343 344 345 344 344 342 340 338 338 343 347 346 313 272 242 296 99 148 161 180 246 252 258 255 243 256 272 278 284 281 283 284 290 281 274 225 206 208 223 243 254 259 285 291 290 283 285 281 260 268 272 268 270 243 234 228 217 204 204 214 214 234 235 249 269 237 209 206 196 224 223 224 224 229 213 222 214 218 215 217 224 223 227 234 236 231
340 341 344 346 344 343 342 338 336 336 349 346 329 312 299 317 313 174 150 198 206 258 280 305 304 288 281 298 303 305 289 290 296 277 287 290 175 197 199 231 214 250 279 285 281 293 295 151 300 286 255 262 281 253 235 222 211 208 183 206 184 221 201 247 261 246 235 198 200 201 211 229 226 217 218 216 225 219 216 227 214 216 222 235 234 224 223
340 341 345 347 344 342 341 336 333 335 339 346 327 312 319 289 252 154 178 198 205 241 254 281 292 297 308 311 308 307 303 309 298 319 311 305 311 141 224 203 167 222 277 293 293 283 272 283 241 216 246 263 250 253 225 212 211 203 191 196 98 232 211 176 205 206 197 189 193 192 198 215 217 220 214 226 228 217 212 225 219 222 216 231 230 232 228
340 342 345 347 345 342 341 335 331 333 335 343 336 313 299 317 331 145 197 207 214 244 260 269 265 281 291 294 296 302 307 313 320 311 307 311 87 181 115 212 182 267 301 283 280 278 268 248 260 229 281 248 256 201 200 206 211 193 222 180 189 290 260 159 195 232 211 199 201 186 199 194 213 208 216 215 226 227 221 222 228 231 221 239 243 251 82
339 341 343 346 346 344 342 336 332 332 330 340 330 293 254 310 279 347 319 185 218 242 237 250 249 262 272 291 312 307 303 306 310 318 320 333 135 196 172 180 98 246 198 271 276 268 270 288 239 256 271 264 278 192 194 183 204 182 174 155 227 255 247 227 221 239 272 215 203 190 200 204 205 210 213 225 224 234 237 221 229 246 247 237 235 237 168
336 338 341 344 346 345 343 339 335 331 329 333 321 298 309 287 343 350 43 295 294 305 266 289 302 300 298 289 289 286 300 308 316 331 316 336 101 340 230 216 195 184 199 156 294 293 322 23 226 239 257 281 240 184 174 180 187 172 194 195 219 226 251 243 223 254 254 275 302 208 197 215 203 208 213 218 227 228 230 249 288 269 249 246 222 249 160
337 337 338 342 346 345 344 342 338 333 328 328 284 315 354 337 324 296 37 321 299 302 297 297 283 285 274 270 279 279 294 321 329 327 326 335 345 62 311 303 210 206 202 182 256 307 327 333 324 284 238 246 187 162 163 190 180 189 208 212 192 209 263 260 263 249 249 255 245 273 215 210 215 208 214 222 226 229 238 245 248 248 234 243 263 273 210
337 338 338 341 345 345 344 344 342 335 334 325 313 65 349 13 339 330 332 303 286 278 279 275 273 284 269 253 296 311 320 318 328 329 341 324 329 344 278 322 340 175 199 180 227 243 272 291 298 24 277 306 248 164 185 176 188 193 212 216 181 194 233 300 1 313 263 244 248 241 228 207 218 219 218 220 223 225 222 224 232 236 235 239 248 282 341
336 339 338 338 343 345 344 345 345 338 341 340 349 355 25 335 12 324 320 310 302 307 294 297 296 295 317 318 318 321 324 327 327 328 334 321 326 334 331 346 337 126 180 198 232 247 249 262 260 272 276 274 295 324 190 198 185 194 208 213 201 211 250 1 290 255 257 287 276 242 240 221 217 223 221 215 219 221 222 220 208 226 229 237 249 239 267
335 336 338 336 342 343 344 345 344 345 333 348 351 356 354 339 357 349 315 295 288 298 292 291 284 294 358 335 317 318 325 322 328 326 322 318 330 327 348 349 307 134 182 208 223 236 242 251 262 278 286 290 279 281 278 219 203 188 218 201 223 211 229 201 267 245 249 267 256 251 271 251 220 219 219 217 220 229 231 225 223 238 251 251 241 230 211
331 334 336 336 338 342 343 344 343 347 349 356 345 338 343 350 337 328 320 297 297 308 324 311 309 336 337 329 327 327 320 322 325 324 318 325 339 331 350 325 345 339 347 240 216 223 244 249 265 264 272 274 276 280 282 245 213 198 209 208 199 266 335 289 62 291 295 250 309 12 325 232 220 202 208 212 218 219 226 212 208 219 228 243 249 240 210
329 332 333 336 339 340 341 342 343 345 345 340 326 315 337 330 318 318 319 313 299 308 308 311 317 322 316 325 327 318 318 319 316 316 319 324 329 337 343 340 342 344 349 96 187 211 245 274 255 262 257 265 274 274 271 239 206 212 207 209 184 156 183 255 213 247 281 8 1 342 270 260 319 295 235 221 221 221 226 232 218 212 209 229 246 242 235
328 328 329 333 337 338 337 340 343 339 341 333 327 315 335 326 315 321 316 303 296 313 317 312 314 304 319 331 324 317 312 306 307 330 320 327 329 341 346 340 348 342 329 330 293 310 343 288 301 275 250 244 252 263 265 253 232 204 214 200 171 116 95 331 268 266 196 180 173 234 268 315 289 268 272 253 233 222 215 223 234 233 227 214 236 257 261
324 325 326 330 333 336 334 336 341 337 338 334 325 321 318 319 325 323 320 317 299 300 300 297 296 330 332 325 318 311 312 314 331 324 325 330 321 337 338 354 350 335 331 317 0 42 337 269 160 235 259 259 286 280 252 231 229 234 212 208 174 146 152 194 251 213 265 29 268 276 307 288 250 240 247 245 234 218 204 207 209 216 213 214 218 223 232
321 321 323 326 331 332 333 331 334 337 334 334 317 302 304 316 326 318 314 304 300 302 291 281 349 330 322 315 318 317 319 331 329 328 322 319 326 334 351 357 348 342 344 332 38 100 196 284 282 218 197 210 207 221 209 220 211 234 233 211 198 156 197 168 269 11 343 38 322 285 257 245 260 352 341 318 300 1 325 248 238 202 220 217 213 211 210
318 320 321 325 328 330 329 329 329 331 331 331 312 308 309 329 302 293 298 303 307 297 311 345 328 315 313 311 314 323 327 329 328 320 321 324 327 325 5 347 350 340 359 356 30 315 320 332 338 291 221 197 204 200 205 202 206 209 221 223 218 228 261 273 273 289 328 6 283 272 294 314 267 297 324 316 311 304 299 229 245 193 212 235 230 219 212
317 318 320 324 327 327 327 327 327 325 327 329 317 312 300 306 295 297 303 295 274 262 289 299 298 309 310 310 321 325 337 320 325 324 321 321 318 338 348 338 342 356 0 345 3 311 11 22 314 297 292 215 200 206 196 203 204 194 190 211 218 220 226 9 288 279 269 289 282 294 245 273 288 320 320 316 300 287 250 215 216 39 312 226 210 222 216
316 315 318 324 326 326 323 323 322 323 323 328 314 307 300 300 293 278 267 278 294 284 267 289 328 321 308 319 308 307 305 302 308 312 299 307 311 4 333 335 350 9 6 10 9 351 59 357 356 347 320 304 222 180 214 195 201 200 193 196 210 218 219 178 267 274 272 252 287 280 262 270 314 338 294 299 282 291 225 214 57 331 327 344 322 235 215
315 314 315 323 324 322 318 320 321 324 327 326 317 301 286 298 273 253 274 272 273 276 288 308 301 294 292 288 284 299 305 312 308 301 309 312 348 353 322 355 341 354 358 0 358 16 360 11 322 340 319 349 355 341 329 215 207 197 221 201 222 225 220 249 245 262 268 321 275 265 270 265 309 304 298 272 242 197 210 41 269 290 312 328 330 359 324
310 310 313 317 320 316 313 314 316 322 326 328 320 296 296 291 282 241 255 275 281 279 288 292 285 286 308 312 305 303 309 303 297 304 309 306 331 338 323 358 353 1 359 5 17 16 7 355 355 326 356 345 10 307 317 300 234 209 213 224 236 201 193 226 224 217 264 231 262 317 302 82 347 339 317 312 350 63 314 289 300 296 331 316 355 12 348
310 312 315 317 316 311 309 314 314 318 321 323 320 305 299 295 287 243 236 258 275 290 292 266 304 306 300 291 285 283 280 277 290 296 302 300 315 315 330 346 325 344 6 4 347 4 1 347 341 4 326 319 323 322 335 326 306 243 228 212 228 142 225 227 238 209 265 288 285 289 324 20 107 74 220 301 326 330 299 291 299 333 341 358 306 25 347
310 311 312 314 312 310 308 309 313 311 317 319 318 296 288 293 303 285 255 247 256 253 264 289 292 285 281 273 268 262 260 263 270 279 293 298 301 301 292 291 303 3 0 2 332 341 355 351 309 323 324 322 274 295 311 299 284 0 325 269 233 139 236 224 270 92 264 183 241 232 223 38 90 117 240 229 244 287 311 335 355 350 11 349 332 353 301
311 312 312 310 309 309 309 308 309 309 307 313 314 301 297 302 296 311 313 285 272 269 275 281 278 273 267 261 254 251 253 251 251 252 256 273 291 284 286 301 329 7 328 32 333 320 319 327 307 321 308 198 310 318 315 316 281 343 332 312 306 199 217 281 292 228 230 262 263 273 129 127 223 195 320 339 19 332 345 336 336 0 348 349 309 76 243
313 313 311 309 308 307 307 307 306 305 306 307 311 304 296 296 299 300 286 279 282 298 298 266 281 293 297 308 310 303 249 228 237 247 239 244 272 289 286 263 29 316 326 31 68 316 318 301 292 303 296 302 342 359 324 338 318 293 272 304 318 264 188 224 259 235 207 261 249 194 182 144 170 105 24 36 36 351 326 339 341 340 343 296 283 34 62
313 308 306 306 306 306 306 305 304 303 305 308 306 292 290 281 277 283 288 301 305 313 297 302 285 267 276 285 295 288 282 285 250 220 223 224 227 250 270 300 335 321 309 314 300 281 280 294 300 299 306 327 33 322 148 266 265 16 323 310 327 326 354 313 245 252 258 208 224 279 191 128 93 47 357 49 84 313 306 13 42 302 301 337 14 47 76
308 305 302 304 307 305 304 302 302 300 299 301 301 291 289 289 295 295 290 282 274 273 286 288 285 294 301 314 304 300 299 289 277 280 248 220 223 234 259 282 285 294 298 297 286 272 281 279 274 288 302 317 210 302 309 9 294 302 286 264 303 310 292 319 305 281 250 299 21 9 15 37 24 18 7 356 28 16 333 352 323 288 347 339 37 30 33
298 300 302 304 306 305 302 301 300 304 304 302 296 291 282 282 276 269 273 289 305 290 247 274 302 308 321 311 298 292 278 266 262 242 254 248 231 226 238 251 266 276 283 288 281 283 280 263 269 275 287 293 307 293 292 223 250 299 314 306 281 268 276 309 318 312 25 42 322 11 42 347 344 18 339 344 48 34 343 303 313 351 2 348 346 6 47
297 299 304 304 302 300 300 299 298 300 303 307 292 290 281 272 267 258 249 245 236 268 298 296 300 303 310 282 278 297 300 286 265 248 237 241 242 241 238 244 253 266 276 287 294 280 280 278 278 312 293 282 303 306 285 232 214 258 265 308 356 306 317 345 348 310 306 331 354 39 145 189 222 212 251 213 99 138 187 257 350 348 346 360 9 344 6
299 302 303 304 301 299 299 303 308 309 312 308 298 287 277 258 247 245 249 227 241 277 289 290 291 288 295 326 321 301 284 262 249 250 257 259 255 247 241 242 245 253 260 264 275 274 268 267 275 281 292 335 314 285 327 300 279 286 296 273 276 264 310 293 296 309 249 262 346 180 202 143 222 258 252 7 352 46 58 50 44 28 20 8 19 7 7
297 302 302 302 301 298 300 303 305 308 312 307 307 297 293 43 30 35 90 309 304 305 293 309 305 286 311 310 295 299 297 290 279 268 261 257 254 251 253 252 244 234 242 255 266 272 279 288 288 279 275 274 266 308 296 304 289 314 210 241 267 290 322 306 319 294 294 301 258 305 251 201 148 264 281 36 24 40 38 44 42 35 42 37 26 26 20
298 301 303 301 301 300 299 301 301 300 301 286 292 291 293 233 80 46 32 333 354 296 296 277 277 300 294 263 262 272 282 291 290 284 274 269 263 261 258 250 250 242 246 238 239 254 270 267 268 270 278 288 336 288 297 295 300 292 57 319 304 328 336 338 331 305 290 300 287 296 280 219 166 215 202 55 37 36 27 16 12 28 357 14 64 33 8
298 299 301 302 300 301 302 298 296 293 283 279 253 250 336 346 331 75 44 306 332 285 290 302 302 295 297 297 293 316 304 293 287 279 263 240 251 248 257 251 259 245 236 249 259 274 261 265 264 275 280 117 141 277 272 274 283 318 336 280 296 252 229 251 159 235 263 288 311 271 224 157 74 352 51 64 76 75 40 26 32 20 11 8 346 66 49
295 298 298 300 302 300 299 297 291 283 275 284 297 296 290 272 252 276 280 296 281 261 286 275 274 302 278 292 314 298 293 292 277 263 251 190 238 212 263 255 259 264 222 246 242 253 258 262 268 258 267 180 192 253 267 278 288 311 284 275 256 222 213 174 286 30 318 301 288 296 69 96 65 66 344 314 143 92 58 5 4 58 40 2 311 55 43
295 296 298 298 298 296 291 291 290 284 274 265 259 242 236 220 206 210 254 271 281 289 267 269 283 282 286 293 288 341 13 328 321 313 316 305 275 252 260 248 217 243 219 237 239 247 252 264 266 270 284 268 248 249 263 280 293 288 293 314 8 345 353 132 110 108 285 279 285 288 326 26 342 284 254 261 333 161 276 270 332 1 130 194 244 41 55
295 294 295 295 293 292 292 284 278 244 246 246 246 192 79 103 189 175 201 220 248 238 229 230 228 282 301 311 309 337 358 325 314 335 313 302 292 273 277 278 227 208 240 212 248 240 267 272 290 294 277 276 251 251 267 270 276 297 310 307 287 268 289 270 136 116 170 246 281 295 79 291 268 266 266 282 256 274 317 298 242 209 20 349 49 71 41
292 292 293 293 294 291 283 247 220 236 232 250 46 101 117 131 175 186 190 199 242 287 283 279 281 277 296 297 312 337 331 306 311 312 307 319 299 264 262 256 272 237 238 225 257 264 266 267 250 263 265 258 273 280 293 312 317 316 338 347 347 316 299 309 21 123 161 226 259 331 342 344 323 332 345 338 339 21 5 313 72 140 200 116 42 90 122
292 293 296 295 283 250 244 237 188 202 333 70 89 144 197 262 210 223 215 230 215 223 256 281 271 262 263 285 299 287 317 309 328 316 327 313 297 335 318 308 274 297 274 256 244 252 254 257 271 274 270 280 281 289 301 293 286 330 5 329 317 315 313 342 26 328 143 156 166 313 305 331 327 351 22 32 349 336 295 267 45 33 45 45 36 18 20
296 300 297 286 260 245 252 45 98 128 136 244 176 198 184 183 236 203 186 220 198 191 219 232 253 265 273 273 272 295 299 302 326 316 307 318 343 308 319 279 265 266 266 269 272 283 276 222 232 255 270 271 271 268 280 343 7 1 344 341 335 339 326 5 191 280 24 34 64 191 239 257 321 341 318 333 323 306 256 90 69 59 58 66 54 23 25
291 279 264 240 252 302 12 95 140 169 215 199 200 286 234 186 232 231 209 198 198 219 208 231 250 245 246 254 268 274 294 310 299 302 299 10 341 312 285 291 315 313 288 288 267 124 263 255 253 253 258 252 259 38 36 34 7 7 4 343 352 316 293 336 336 85 120 154 205 120 106 180 196 13 9 343 327 321 24 329 303 62 62 44 24 18 32
217 247 259 270 272 28 45 141 150 193 256 252 191 212 273 228 232 256 167 203 216 201 191 235 230 238 240 266 304 308 312 291 312 312 318 314 281 290 323 321 311 300 281 269 278 98 284 288 287 268 297 343 38 3 345 15 347 11 352 358 342 329 298 7 67 37 72 64 354 103 136 89 127 150 191 273 317 337 318 266 69 52 53 60 24 8 14
317 314 308 321 348 340 322 332 303 269 246 259 261 229 231 261 212 245 269 247 271 266 177 258 271 266 215 230 273 282 310 318 303 316 300 287 306 284 279 278 318 300 298 282 321 298 277 270 280 268 48 13 19 2 358 351 357 344 358 2 358 342 340 42 245 161 177 197 123 83 60 101 59 50 121 187 327 331 341 4 18 57 41 44 25 26 8
328 295 313 307 290 284 290 253 219 241 239 228 256 251 242 250 251 234 215 259 290 306 189 178 277 310 315 334 312 316 297 298 294 282 287 284 276 285 303 301 278 266 271 286 318 290 287 279 270 325 0 2 1 3 357 357 345 346 342 359 351 3 328 330 338 181 248 57 23 18 26 5 351 44 289 301 296 292 5 12 43 57 25 43 359 30 20
300 272 242 273 282 270 236 253 213 206 227 212 222 271 241 246 233 248 265 239 212 243 275 237 294 330 274 274 279 282 299 334 302 299 293 290 324 294 289 287 298 269 290 318 280 278 278 270 307 29 337 9 356 1 351 351 336 341 350 346 335 335 324 318 305 310 240 223 191 242 307 329 305 296 319 290 267 301 6 52 52 70 42 3 25 29 36
259 254 236 220 254 255 182 261 201 138 241 205 199 236 230 248 257 228 257 358 18 279 294 315 322 329 314 334 311 311 305 282 261 297 267 275 277 291 287 260 251 296 322 288 287 277 278 39 48 358 329 356 0 359 351 346 348 344 345 351 350 356 358 335 320 291 300 309 296 274 293 281 290 261 233 9 357 312 326 48 74 27 109 108 31 51 38
301 253 228 254 240 251 122 282 189 168 221 235 214 246 261 264 285 315 53 117 272 297 320 309 314 312 303 312 300 273 271 291 33 249 269 303 291 278 270 273 300 291 286 279 277 271 295 26 346 1 6 2 2 357 353 350 351 348 345 344 356 357 3 347 338 333 306 296 291 290 266 66 222 326 12 344 324 17 234 184 138 183 204 231 104 80 51
230 253 260 242 260 252 212 257 208 227 245 225 234 238 257 279 315 314 343 358 332 318 312 323 317 302 290 300 298 303 308 287 286 274 292 287 295 285 275 278 300 287 277 266 262 277 47 7 338 339 359 12 8 358 355 352 350 348 348 347 349 349 345 341 343 336 322 311 329 267 287 210 251 231 339 58 347 359 10 94 171 247 2 46 84 86 83
261 253 246 263 268 262 235 247 245 238 267 281 293 316 321 326 334 330 323 319 311 330 319 312 306 304 298 298 289 276 267 269 269 291 310 286 272 288 307 298 269 249 266 275 317 22 348 348 350 334 356 5 7 1 353 352 350 350 348 340 341 344 338 320 315 301 272 267 291 310 357 36 40 49 54 47 54 18 50 56 99 211 252 81 111 83 50
282 272 232 238 241 237 225 231 241 253 253 268 286 286 296 316 309 293 311 334 328 321 305 311 300 302 289 287 276 280 292 282 281 270 254 276 287 273 288 260 260 270 311 347 64 22 348 343 343 357 3 2 3 357 358 356 349 345 345 347 337 339 340 343 343 353 5 349 329 346 3 299 291 47 64 52 100 79 72 57 37 37 45 78 63 27 342
286 295 261 239 243 264 279 297 307 294 303 304 300 285 284 291 302 309 333 350 326 313 325 311 303 308 283 297 295 292 274 262 263 274 275 252 235 250 256 282 306 280 83 25 55 183 315 343 350 358 6 1 2 354 355 351 348 343 345 346 344 349 344 342 343 2 17 18 332 306 294 40 86 82 72 74 23 65 71 88 64 73 110 131 104 47 33
233 236 238 253 278 276 259 251 250 269 279 283 292 286 298 285 283 312 41 349 329 311 303 288 269 254 277 300 285 289 290 289 288 301 277 268 265 269 272 268 254 296 19 29 12 2 359 7 9 5 3 358 356 354 352 348 349 347 345 341 345 354 0 3 3 11 24 21 19 345 314 286 210 113 179 82 92 252 45 65 115 112 90 39 59 76 49
233 247 251 244 250 275 313 305 302 297 295 292 304 325 339 321 331 330 44 359 324 308 295 290 320 306 296 288 284 275 278 356 294 272 269 277 297 289 299 341 355 353 355 10 11 13 11 17 14 3 353 353 353 350 350 346 348 356 351 349 345 349 359 3 5 9 35 42 38 8 342 320 316 13 63 237 133 75 62 99 62 25 48 62 54 69 67
232 237 248 241 236 245 254 273 279 279 291 307 314 313 328 301 316 321 0 329 311 294 298 323 317 309 300 269 281 308 315 293 281 297 289 354 14 346 13 352 348 344 355 351 358 12 11 13 9 0 353 348 344 345 349 345 347 357 2 1 354 355 360 3 7 7 13 28 36 28 345 298 24 34 50 38 46 66 54 35 41 53 71 42 65 99 108